Location: Vancouver
(49.2500°N, 123.1330°W)
Time: 06:31:18
(UTC-07:00)

Cosmos 676 Rocket - Visible Passes

Search period start: 31 July 2014 00:00
Search period end: 10 August 2014 00:00
Orbit: 756 x 785 km, 74.0° (Epoch: 29 July)

Date Brightness Start Highest point End Pass type
(mag) Time Alt. Az. Time Alt. Az. Time Alt. Az.
31 Jul 6.0 03:29:34 10° SE 03:33:29 21° E 03:37:24 10° NE visible
01 Aug 6.4 02:55:10 10° ESE 02:57:36 13° E 03:00:01 10° ENE visible
01 Aug 4.1 04:33:35 10° SSW 04:38:53 85° ESE 04:44:10 10° NNE visible
02 Aug 4.6 03:58:16 14° S 04:02:42 55° ESE 04:07:50 10° NNE visible
03 Aug 5.2 03:23:00 16° SSE 03:26:37 35° ESE 03:31:21 10° NE visible
03 Aug 4.8 05:03:44 10° SW 05:08:41 40° WNW 05:13:38 10° NNE visible
04 Aug 5.8 02:47:42 14° SE 02:50:38 22° E 02:54:36 10° NE visible
04 Aug 4.2 04:28:02 15° SW 04:32:19 60° WNW 04:37:32 10° NNE visible
05 Aug 6.3 02:12:22 11° ESE 02:14:44 14° E 02:17:18 10° ENE visible
05 Aug 4.0 03:52:42 23° SSW 03:56:02 88° ESE 04:01:19 10° NNE visible
06 Aug 4.4 03:17:20 29° S 03:19:52 57° ESE 03:25:00 10° NNE visible
06 Aug 5.3 04:57:55 10° WSW 05:02:20 27° NW 05:06:45 10° N visible
07 Aug 5.1 02:41:56 28° SE 02:43:46 36° ESE 02:48:31 10° NE visible
07 Aug 4.8 04:22:15 17° WSW 04:25:51 39° WNW 04:30:46 10° NNE visible
08 Aug 5.6 02:06:30 21° ESE 02:07:46 23° E 02:11:48 10° NE visible
08 Aug 4.2 03:46:50 28° SW 03:49:29 58° WNW 03:54:40 10° NNE visible
09 Aug 6.1 01:31:03 14° ESE 01:31:52 14° E 01:34:34 10° ENE visible
09 Aug 3.9 03:11:23 43° SSW 03:13:12 89° WNW 03:18:28 10° NNE visible
09 Aug 5.9 04:52:30 10° W 04:56:06 18° NW 04:59:42 10° N visible
